New Orleans Lakefront, LA

8:29 PM CDT on October 21, 2017 (GMT -0500)
Lakefront

Weather History for KNEW - September, 2012

Change the Weather History Date:

Monday, September 10, 2012

  Actual Average Record
Temperature  
Mean Temperature 77 °F 81 °F  
Max Temperature 85 °F 89 °F 101 °F (1980)
Min Temperature 69 °F 74 °F 62 °F (1964)
Degree Days  
Heating Degree Days 0 0  
Month to date heating degree days 0 0  
Since 1 July heating degree days 0 0  
Cooling Degree Days 12 16  
Month to date cooling degree days 186 168  
Year to date cooling degree days 2853 2414  
Growing Degree Days 31 (Base 50)    
Moisture  
Dew Point 60 °F    
Average Humidity 54    
Maximum Humidity 68    
Minimum Humidity 40    
Precipitation  
Precipitation 0.00 in 0.18 in 3.22 in (1960)
Month to date precipitation 0.09 1.91  
Year to date precipitation 57.31 46.12  
Snow  
Snow 0.00 in - - ()
Month to date snowfall 0.0  
Since 1 July snowfall 0.0  
Since 1 September snowfall 0.0  
Snow Depth 0.00 in    
Sea Level Pressure  
Sea Level Pressure 30.05 in    
Wind  
Wind Speed 6 mph (ENE)    
Max Wind Speed 16 mph    
Max Gust Speed 20 mph    
Visibility 10 miles    
Events      
T = Trace of Precipitation, MM = Missing Value Source: NWS Daily Summary

Daily Weather History Graph

Daily Weather History Graph

Search for Another Location

Airport or City:

Trip Planner

Search our weather history database for the weather conditions in past years. The results will help you decide how hot, cold, wet, or windy it might be!

Date:

Astronomy

Sep. 10, 2012 Rise Set
Actual Time 6:42 AM CDT 7:11 PM CDT
Civil Twilight 6:18 AM CDT 7:35 PM CDT
Nautical Twilight 5:49 AM CDT 8:03 PM CDT
Astronomical Twilight 5:21 AM CDT 8:31 PM CDT
Moon 1:21 AM CDT (9/10) 3:23 PM CDT (9/10)
Length of Visible Light 13h 16m
Length of Day
12h 28m
Waning Crescent, 30% of the Moon is Illuminated
Sep 10
Waning Crescent
Sep 15
New
Sep 22
First Quarter
Sep 29
Full
Oct 8
Last Quarter

Hourly Weather History & Observations

Time (CDT) Temp. Heat Index Dew Point Humidity Pressure Visibility Wind Dir Wind Speed Gust Speed Precip Events Conditions
12:53 AM 80.1 °F 80.9 °F 60.1 °F 50% 30.03 in 10.0 mi ENE 15.0 mph - N/A   Clear
1:53 AM 79.0 °F - 60.1 °F 52% 30.03 in 10.0 mi ENE 13.8 mph - N/A   Clear
2:53 AM 78.1 °F - 61.0 °F 56% 30.02 in 10.0 mi ENE 13.8 mph - N/A   Clear
3:53 AM 78.1 °F - 59.0 °F 52% 30.01 in 10.0 mi ENE 15.0 mph - N/A   Clear
4:53 AM 77.0 °F - 60.1 °F 56% 30.02 in 10.0 mi ENE 15.0 mph - N/A   Clear
5:53 AM 77.0 °F - 61.0 °F 58% 30.03 in 10.0 mi East 13.8 mph - N/A   Clear
6:53 AM 75.9 °F - 61.0 °F 60% 30.06 in 10.0 mi ENE 13.8 mph - N/A   Clear
7:53 AM 75.9 °F - 61.0 °F 60% 30.07 in 10.0 mi ENE 12.7 mph - N/A   Clear
8:53 AM 77.0 °F - 62.1 °F 60% 30.08 in 10.0 mi ENE 11.5 mph - N/A   Clear
9:53 AM 80.1 °F 81.2 °F 62.1 °F 54% 30.09 in 10.0 mi ENE 9.2 mph - N/A   Clear
10:53 AM 82.0 °F 82.1 °F 59.0 °F 45% 30.10 in 10.0 mi ENE 9.2 mph - N/A   Clear
11:53 AM 82.9 °F 82.6 °F 57.9 °F 42% 30.09 in 10.0 mi NE 9.2 mph - N/A   Partly Cloudy
12:53 PM 84.9 °F 84.2 °F 57.9 °F 40% 30.08 in 10.0 mi NNE 8.1 mph - N/A   Clear
1:53 PM 86.0 °F 85.4 °F 59.0 °F 40% 30.07 in 10.0 mi North 9.2 mph - N/A   Clear
2:53 PM 87.1 °F 85.7 °F 55.9 °F 35% 30.04 in 10.0 mi NE 3.5 mph - N/A   Clear
3:53 PM 86.0 °F 85.0 °F 57.9 °F 38% 30.04 in 10.0 mi ESE 8.1 mph - N/A   Clear
4:53 PM 86.0 °F 84.9 °F 57.0 °F 37% 30.04 in 10.0 mi SSE 3.5 mph - N/A   Clear
5:53 PM 86.0 °F 84.9 °F 57.0 °F 37% 30.04 in 10.0 mi Variable 4.6 mph - N/A   Clear
6:53 PM 82.9 °F 82.8 °F 59.0 °F 44% 30.04 in 10.0 mi ESE 4.6 mph - N/A   Clear
7:53 PM 81.0 °F 81.6 °F 60.1 °F 49% 30.04 in 10.0 mi SE 4.6 mph - N/A   Clear
8:53 PM 81.0 °F 81.6 °F 60.1 °F 49% 30.05 in 10.0 mi ESE 3.5 mph - N/A   Clear
9:53 PM 79.0 °F - 61.0 °F 54% 30.06 in 10.0 mi SSE 3.5 mph - N/A   Clear
10:53 PM 79.0 °F - 61.0 °F 54% 30.06 in 10.0 mi Calm Calm - N/A   Clear
11:53 PM 79.0 °F - 61.0 °F 54% 30.06 in 10.0 mi Calm Calm - N/A   Clear